Location: La Comballaz
(46.3780°N, 7.0817°E)
Time: 01:53:10
(UTC+00:00)

X-37B - Pass Details

Date: 13 December 2021
Orbit: 334 x 337 km, 45.0° (Epoch: 11 January)

Event Time Altitude Azimuth Distance (km) Brightness Sun altitude
Rises 17:39:40 0° 271° (W) 2,105 5.8 -18.8°
Reaches altitude 10° 17:41:40 10° 268° (W) 1,268 4.4 -19.2°
Enters shadow 17:44:11 57° 225° (SW) 398 0.8 -19.6°
